Roseburg, OR

11:08 PM PDT on May 27, 2017 (GMT -0700)
Roseburg Regional

Weather History for KRBG - October, 2013

Change the Weather History Date:

Saturday, October 5, 2013

  Actual Average Record
Temperature  
Mean Temperature 59 °F 59 °F  
Max Temperature 75 °F 72 °F 91 °F (2015)
Min Temperature 42 °F 47 °F 34 °F (1962)
Degree Days  
Heating Degree Days 6 6  
Month to date heating degree days 55 28  
Since 1 July heating degree days 133 117  
Cooling Degree Days 0 0  
Month to date cooling degree days 0 2  
Year to date cooling degree days 823 478  
Growing Degree Days 8 (Base 50)    
Moisture  
Dew Point 44 °F    
Average Humidity 67    
Maximum Humidity 100    
Minimum Humidity 33    
Precipitation  
Precipitation 0.00 in 0.05 in 0.79 in (1950)
Month to date precipitation 0.28 0.26  
Year to date precipitation 12.66 20.87  
Snow  
Snow 0.00 in - - ()
Month to date snowfall 0.0  
Year to date snowfall 0.0  
Snow Depth 0.00 in    
Sea Level Pressure  
Sea Level Pressure 30.26 in    
Wind  
Wind Speed 1 mph (NW)    
Max Wind Speed 5 mph    
Max Gust Speed 6 mph    
Visibility 6 miles    
Events Fog    
T = Trace of Precipitation, MM = Missing Value Source: NWS Daily Summary

Daily Weather History Graph

Daily Weather History Graph

Search for Another Location

Airport or City:

Trip Planner

Search our weather history database for the weather conditions in past years. The results will help you decide how hot, cold, wet, or windy it might be!

Date:

Astronomy

Oct. 05, 2013 Rise Set
Actual Time 7:15 AM PDT 6:46 PM PDT
Civil Twilight 6:47 AM PDT 7:15 PM PDT
Nautical Twilight 6:14 AM PDT 7:48 PM PDT
Astronomical Twilight 5:41 AM PDT 8:21 PM PDT
Moon 8:03 AM PDT (10/5) 7:06 PM PDT (10/5)
Length of Visible Light 12h 27m
Length of Day
11h 31m
New Moon, 1% of the Moon is Illuminated
Oct 5
New Moon
Oct 11
First Quarter
Oct 18
Full
Oct 26
Last Quarter
Nov 3
New

Hourly Weather History & Observations

Time (PDT) Temp. Windchill Dew Point Humidity Pressure Visibility Wind Dir Wind Speed Gust Speed Precip Events Conditions
12:53 AM 46.0 °F - 43.0 °F 89% 30.33 in 9.0 mi Calm Calm - N/A   Clear
1:53 AM 45.0 °F - 43.0 °F 93% 30.32 in 10.0 mi Calm Calm - N/A   Clear
2:53 AM 44.1 °F - 42.1 °F 93% 30.32 in 10.0 mi Calm Calm - N/A   Scattered Clouds
3:01 AM 44.6 °F - 42.8 °F 93% 30.32 in 10.0 mi Calm Calm - N/A   Mostly Cloudy
3:10 AM 44.6 °F - 42.8 °F 93% 30.31 in 10.0 mi Calm Calm - N/A   Scattered Clouds
3:53 AM 43.0 °F - 41.0 °F 93% 30.31 in 9.0 mi Calm Calm - N/A   Clear
4:14 AM 42.8 °F - 41.0 °F 93% 30.30 in 10.0 mi Calm Calm - N/A   Scattered Clouds
4:24 AM 42.8 °F - 41.0 °F 93% 30.30 in 7.0 mi Calm Calm - N/A   Mostly Cloudy
4:39 AM 42.8 °F - 42.8 °F 100% 30.30 in 1.5 mi Calm Calm - N/A   Overcast
4:48 AM 42.8 °F - 42.8 °F 100% 30.30 in 0.2 mi Calm Calm - N/A Fog Fog
4:53 AM 42.1 °F - 41.0 °F 96% 30.30 in 0.2 mi Calm Calm - N/A Fog Fog
5:53 AM 43.0 °F - 43.0 °F 100% 30.30 in 0.2 mi Calm Calm - N/A Fog Fog
6:09 AM 42.8 °F - 42.8 °F 100% 30.30 in 0.2 mi Calm Calm - N/A Fog Fog
6:46 AM 42.8 °F - 42.8 °F 100% 30.29 in 0.2 mi Calm Calm - N/A Fog Fog
6:53 AM 42.1 °F - 42.1 °F 100% 30.30 in 0.2 mi Calm Calm - N/A Fog Fog
7:21 AM 42.8 °F - 42.8 °F 100% 30.29 in 0.2 mi Calm Calm - N/A Fog Fog
7:53 AM 42.1 °F 40.2 °F 42.1 °F 100% 30.30 in 0.2 mi SSE 3.5 mph - N/A Fog Fog
8:09 AM 42.8 °F - 42.8 °F 100% 30.29 in 0.2 mi Calm Calm - N/A Fog Fog
8:53 AM 42.1 °F - 42.1 °F 100% 30.30 in 0.2 mi Calm Calm - N/A Fog Fog
9:13 AM 42.8 °F - 42.8 °F 100% 30.30 in 0.8 mi Calm Calm - N/A   Overcast
9:35 AM 42.8 °F 41.1 °F 42.8 °F 100% 30.30 in 1.5 mi South 3.5 mph - N/A   Overcast
9:50 AM 42.8 °F - 42.8 °F 100% 30.30 in 2.5 mi Calm Calm - N/A   Overcast
9:53 AM 43.0 °F - 43.0 °F 100% 30.30 in 3.0 mi Calm Calm - N/A   Overcast
10:53 AM 48.0 °F - 44.1 °F 86% 30.29 in 10.0 mi Calm Calm - N/A   Scattered Clouds
11:53 AM 54.0 °F - 45.0 °F 72% 30.27 in 10.0 mi Calm Calm - N/A   Clear
12:53 PM 60.1 °F - 46.0 °F 60% 30.24 in 10.0 mi Calm Calm - N/A   Clear
1:53 PM 64.9 °F - 45.0 °F 48% 30.20 in 10.0 mi NNE 3.5 mph - N/A   Clear
2:53 PM 70.0 °F - 44.1 °F 39% 30.18 in 10.0 mi NW 3.5 mph - N/A   Clear
3:53 PM 73.0 °F - 43.0 °F 34% 30.15 in 10.0 mi Calm Calm - N/A   Clear
4:53 PM 73.9 °F - 44.1 °F 34% 30.14 in 10.0 mi Calm Calm - N/A   Clear
5:53 PM 73.0 °F - 42.1 °F 33% 30.13 in 10.0 mi NW 3.5 mph - N/A   Clear
6:53 PM 66.0 °F - 46.0 °F 48% 30.14 in 10.0 mi Calm Calm - N/A   Clear
7:53 PM 61.0 °F - 48.9 °F 64% 30.15 in 10.0 mi Calm Calm - N/A   Clear
8:53 PM 57.0 °F - 48.9 °F 74% 30.16 in 10.0 mi Calm Calm - N/A   Clear
9:53 PM 54.0 °F - 48.0 °F 80% 30.17 in 10.0 mi Calm Calm - N/A   Clear
10:53 PM 53.1 °F - 48.0 °F 83% 30.16 in 10.0 mi Calm Calm - N/A   Clear
11:53 PM 51.1 °F - 46.9 °F 86% 30.16 in 10.0 mi Calm Calm - N/A   Clear